TimeCST,TemperatureF,Dew PointF,Humidity,Sea Level PressureIn,VisibilityMPH,Wind Direction,Wind SpeedMPH,Gust SpeedMPH,PrecipitationIn,Events,Conditions,WindDirDegrees,DateUTC
12:53 AM,46.0,44.1,93,30.02,4.0,NNE,8.1,-,N/A,,Overcast,20,2003-01-22 06:53:00
1:06 AM,44.6,44.6,100,30.01,2.0,NNE,8.1,-,N/A,,Overcast,20,2003-01-22 07:06:00
1:30 AM,44.6,44.6,100,30.01,2.5,North,9.2,-,N/A,,Overcast,10,2003-01-22 07:30:00
1:53 AM,44.1,44.1,100,30.03,3.0,North,10.4,-,N/A,,Overcast,360,2003-01-22 07:53:00
2:24 AM,42.8,42.8,100,30.02,2.5,NNE,10.4,17.3,N/A,,Overcast,30,2003-01-22 08:24:00
2:53 AM,43.0,42.1,97,30.05,2.5,NNE,11.5,-,N/A,,Overcast,20,2003-01-22 08:53:00
3:12 AM,42.8,42.8,100,30.04,1.8,NNE,6.9,-,N/A,,Overcast,20,2003-01-22 09:12:00
3:43 AM,42.8,42.8,100,30.05,2.0,NNE,8.1,-,N/A,,Overcast,20,2003-01-22 09:43:00
3:53 AM,42.1,42.1,100,30.06,2.0,NNE,5.8,-,N/A,,Overcast,20,2003-01-22 09:53:00
4:53 AM,41.0,39.9,96,30.07,2.0,NNE,8.1,-,N/A,,Overcast,30,2003-01-22 10:53:00
5:25 AM,39.2,39.2,100,30.08,3.0,North,12.7,-,N/A,,Overcast,10,2003-01-22 11:25:00
5:42 AM,39.2,37.4,93,30.09,5.0,NNE,12.7,-,N/A,,Overcast,20,2003-01-22 11:42:00
5:53 AM,39.9,37.0,89,30.10,6.0,North,6.9,-,N/A,,Overcast,10,2003-01-22 11:53:00
6:53 AM,39.9,37.0,89,30.13,7.0,North,8.1,-,N/A,,Overcast,10,2003-01-22 12:53:00
7:53 AM,39.9,35.1,83,30.15,8.0,North,12.7,-,N/A,,Overcast,10,2003-01-22 13:53:00
8:09 AM,39.2,35.6,87,30.14,9.0,NNE,11.5,-,N/A,,Overcast,20,2003-01-22 14:09:00
8:53 AM,41.0,35.1,79,30.16,10.0,NNE,10.4,-,N/A,,Overcast,20,2003-01-22 14:53:00
9:53 AM,43.0,34.0,71,30.17,10.0,North,11.5,-,N/A,,Mostly Cloudy,360,2003-01-22 15:53:00
10:01 AM,44.6,33.8,66,30.15,10.0,NNE,10.4,17.3,N/A,,Scattered Clouds,20,2003-01-22 16:01:00
10:53 AM,46.0,34.0,63,30.17,10.0,North,8.1,-,N/A,,Mostly Cloudy,10,2003-01-22 16:53:00
11:53 AM,46.0,34.0,63,30.15,10.0,NNE,9.2,-,N/A,,Overcast,20,2003-01-22 17:53:00
12:37 PM,48.2,33.8,58,30.11,10.0,North,8.1,-,N/A,,Partly Cloudy,360,2003-01-22 18:37:00
12:53 PM,50.0,34.0,54,30.12,10.0,Variable,5.8,-,N/A,,Clear,0,2003-01-22 18:53:00
1:53 PM,50.0,33.1,52,30.10,10.0,North,12.7,-,N/A,,Scattered Clouds,10,2003-01-22 19:53:00
2:03 PM,48.2,33.8,58,30.09,6.0,NNE,9.2,-,N/A,,Haze,20,2003-01-22 20:03:00
2:53 PM,48.0,33.1,56,30.12,4.0,NNW,12.7,18.4,N/A,,Haze,330,2003-01-22 20:53:00
3:25 PM,46.4,33.8,62,30.12,2.5,North,11.5,-,N/A,,Haze,360,2003-01-22 21:25:00
3:53 PM,46.9,32.0,56,30.14,3.0,North,10.4,-,N/A,,Haze,360,2003-01-22 21:53:00
4:53 PM,45.0,30.0,56,30.18,5.0,North,11.5,-,N/A,,Haze,10,2003-01-22 22:53:00
5:41 PM,44.6,28.4,53,30.19,10.0,North,11.5,-,N/A,,Overcast,350,2003-01-22 23:41:00
5:53 PM,44.1,28.0,53,30.22,10.0,North,13.8,-,N/A,,Overcast,360,2003-01-22 23:53:00
6:53 PM,42.1,24.1,49,30.24,10.0,North,10.4,-,N/A,,Overcast,360,2003-01-23 00:53:00
7:53 PM,41.0,21.9,47,30.28,10.0,North,8.1,-,N/A,,Overcast,350,2003-01-23 01:53:00
8:53 PM,37.9,21.9,53,30.30,10.0,NNW,8.1,-,N/A,,Clear,340,2003-01-23 02:53:00
9:53 PM,37.0,21.9,54,30.31,10.0,North,6.9,-,N/A,,Clear,350,2003-01-23 03:53:00
10:53 PM,37.9,21.0,51,30.34,10.0,NNE,8.1,-,N/A,,Overcast,20,2003-01-23 04:53:00
11:53 PM,37.9,19.9,48,30.37,10.0,North,10.4,-,N/A,,Scattered Clouds,10,2003-01-23 05:53:00